Regional Weather Roundup
Issued by NWS

Home | Current Version | Previous Version | Graphics & Text | Print | Product List | Glossary On
Versions: 1 2 3 4 5 6 7 8 9 10 11 12 13 14 15 16 17 18 19 20 21 22 23 24 25 26 27 28 29 30 31 32 33 34 35 36 37 38 39 40 41 42 43 44 45 46 47 48 49 50
517
ASUS45 KSLC 191910
RWRUT

UTAH REGIONAL WEATHER ROUNDUP
NATIONAL WEATHER SERVICE SALT LAKE CITY UT
100 PM MDT TUE SEP 19 2017

UTZ001>011-023>025-192000-

NORTHERN UTAH

CITY           SKY/WX    TMP DP  RH WIND       PRES   REMARKS
BRIGHAM CITY   CLOUDY    51  32  47 CALM      29.95S
DUGWAY         PTSUNNY   62  34  34 E5        29.90
HILL AFB       LGT RAIN  47  37  68 E6        29.96R
LOGAN          CLOUDY    50  36  58 S9        29.94S
OGDEN          CLOUDY    50  36  58 SE6       29.95R
SALT LAKE CITY CLOUDY    56  38  50 NW3       29.95R
TOOELE VALLEY  CLOUDY    55  41  58 N7        29.94S
WENDOVER       CLOUDY    59  34  39 W3        29.90F
HEBER CITY     DRIZZLE   45  37  76 E13       29.94S
WEST JORDAN    CLOUDY    54  44  69 N13       29.96S

$$

UTZ011>015-024>027-192000-

CENTRAL/NORTHEAST UTAH

CITY           SKY/WX    TMP DP  RH WIND       PRES   REMARKS
PROVO AIRPORT  LGT RAIN  52  43  71 N5        29.95S
MOAB/CANYONLAN SUNNY     79  27  14 S23G32    29.77F
DELTA          MOSUNNY   68  36  30 NW8       29.87S
PRICE          MOSUNNY   71  35  26 W17G25    29.83S
ROOSEVELT      MOSUNNY   66  37  34 W21G36    29.81R
VERNAL         CLOUDY    68  39  34 W20G31    29.76S

$$

UTZ013>016-019>022-027-192000-

SOUTHERN UTAH

CITY           SKY/WX    TMP DP  RH WIND       PRES   REMARKS
BRYCE CANYON   SUNNY     65  36  34 SW21G32   30.04F
CEDAR CITY     SUNNY     73  38  27 S24G35    29.92F
MILFORD        SUNNY     74  36  25 SW28G33   29.88F
ST GEORGE      CLOUDY    82  41  23 NW8       29.82F
HANKSVILLE     MOSUNNY   79  32  18 SW17G33   29.81F
BLANDING         N/A     72  25  17 S14G23    30.03F

$$

REGIONAL REPORTS     COLORADO/ARIZONA

CITY           SKY/WX    TMP DP  RH WIND       PRES   REMARKS
CRAIG, CO      PTSUNNY   72  21  14 W26G40    29.78F
GRAND JUNCTION SUNNY     79  25  13 SW10      29.78F
RIFLE, CO      SUNNY     78  21  12 SW22G32   29.79F
MONTROSE, CO   CLOUDY    74  21  13 SW13G23   29.89F
CORTEZ, CO     SUNNY     74  22  14 SW13G22   30.00F
PAGE, AZ       SUNNY     80  33  18 SW8G22    29.87F
GRAND CANYON   SUNNY     69  32  25 SW23G36   30.08F
KINGMAN, AZ    SUNNY     82  36  19 SW18      29.92F
FLAGSTAFF, AZ  SUNNY     66  22  18 SW23G33   30.13F

$$

REGIONAL REPORTS    NEVADA/IDAHO/WYOMING

CITY           SKY/WX    TMP DP  RH WIND       PRES   REMARKS
LAS VEGAS, NV  MOSUNNY   85  42  22 S10       29.79F
ELY, NY        MOSUNNY   66  22  18 SW18G25   29.95S
ELKO, NV       SUNNY     60  17  18 W29G36    29.96S
POCATELLO, ID  MOSUNNY   53  35  50 W25G35    29.90S
BURLEY, ID     MOSUNNY   53  38  56 W17G24    29.91F
FORT BRIDGER,  LGT RAIN  38  38 100 W10       30.00R WCI  31
EVANSTON, WY   LGT RAIN  37  35  92 W7        29.98R WCI  32
ROCK SPRINGS,  LGT SNOW  34  32  92 W21       29.96R FOG     WCI  22

$$




USA.gov is the U.S. government's official web portal to all federal, state and local government web resources and services.